Tracking 28799 objects as of 18-Apr-2024
HD Live streaming from Space Station
objects crossing your sky now

FREGAT R/B

Track FREGAT R/B now!


NORAD ID: 39156
Int'l Code: 2013-019B
Perigee: 19,369.4 km
Apogee: 19,687.1 km
Inclination: 64.9 °
Period: 691.3 minutes
Semi major axis: 25899 km
RCS: 10 m2 (large)
Launch date: April 26, 2013
Source: Commonwealth of Independent States (former USSR) (CIS)
Launch site: PLESETSK MISSILE AND SPACE COMPLEX (PKMTR)

Note: This is a ROCKET BODY
Your satellite tracking list
Your tracking list is empty




NASA's NSSDC Master Catalog

Two Line Element Set (TLE):
1 39156U 13019B   24108.05270477  .00000072  00000-0  00000-0 0  9994
2 39156  64.8894 106.7833 0061335  91.9531 268.7695  2.08292287 83261
Source of the keplerian elements: AFSPC